#timestamp,LO_Frequency,Hit,StdDev 
1621897215.4,286046999.3,N
1621897235.2,286046997.0,Y
1621897255.1,286046996.1,P
1621897256.0,286046996.1,N
1621897275.8,286046994.5,P
1621897295.7,286046994.5,Y
1621897315.5,286046998.9,P
1621897335.3,286046998.4,N
1621897355.2,286046998.6,N
1621897375.0,286047001.2,N
1621897375.9,286047001.2,N
1621897395.8,286046999.4,N
1621897415.6,286046999.0,N
1621897435.4,286046998.8,N
1621897455.3,286046997.0,N
1621897475.1,286046997.0,N
1621897495.8,286046999.6,N
1621897515.7,286046999.0,N
1621897535.5,286046997.7,N
1621897555.4,286046997.6,N
1621897575.2,286046995.4,Y
1621897595.0,286046996.8,P
1621897595.9,286046996.8,P
1621897615.8,286046997.2,P
1621897635.6,286046999.6,N
1621897655.5,286046999.6,N
1621897675.3,286046998.3,N
1621897695.1,286047001.1,N
1621897715.9,286046998.6,N
1621897735.7,286046999.4,N
1621897755.6,286046999.0,N
1621897775.4,286046997.4,N
1621897795.2,286046995.4,Y
1621897815.1,286046999.3,P
1621897816.0,286046999.3,N
1621897835.8,286046998.6,P
1621897855.7,286046998.2,Y
1621897875.5,286047000.3,P
1621897895.3,286047000.1,N
1621897915.2,286046998.2,P
1621897935.0,286046998.5,N
1621897935.9,286046998.5,N
1621897955.7,286046998.9,N
1621897975.6,286046998.6,N
1621897995.4,286046998.8,N
1621898015.3,286046998.9,N
1621898035.1,286047001.0,N
1621898055.8,286046999.3,N
1621898075.7,286046998.5,N
1621898095.5,286047001.2,N
1621898115.3,286047000.1,N
1621898135.2,286047002.4,N
1621898155.0,286047001.6,N
1621898155.9,286047001.6,N
1621898175.8,286047000.0,N
1621898195.6,286046996.5,N
1621898215.4,286046998.0,N
1621898235.3,286046998.3,N
1621898255.1,286047001.2,N
1621898275.9,286047001.2,N
1621898295.7,286046998.9,N
1621898315.5,286046998.6,N
1621898335.4,286046998.6,N
1621898355.2,286046998.1,N
1621898375.0,286046999.0,N
1621898375.9,286046999.0,N
1621898395.8,286047000.5,N
1621898415.6,286046997.2,N
1621898435.5,286046995.6,Y
1621898455.3,286046997.2,P
1621898475.1,286046999.0,N
1621898495.9,286046998.1,N
1621898515.7,286046999.5,N
1621898535.5,286046998.5,N
1621898555.4,286046999.7,N
1621898575.2,286047001.9,N
1621898595.1,286047000.1,N
1621898596.0,286047000.1,N
1621898615.8,286047001.4,N
1621898635.6,286047001.3,N
1621898655.5,286047002.5,N
1621898675.3,286047001.9,N
1621898695.1,286047001.5,N
1621898715.9,286047002.2,N
1621898735.7,286047000.9,N
1621898755.6,286047002.7,N
1621898775.4,286047001.9,N
1621898795.2,286047001.7,N
1621898815.1,286047000.5,N
1621898816.0,286047000.5,N
1621898835.8,286046999.9,N
1621898855.6,286047000.4,N
1621898875.5,286047002.7,N
1621898895.3,286047004.3,N
1621898915.1,286047003.2,N
1621898935.9,286047003.1,N
1621898955.7,286047004.0,N
1621898975.6,286047004.5,N
1621898995.4,286047005.0,N
1621899015.2,286047003.7,N
1621899035.1,286047002.3,N
1621899036.0,286047002.3,N
1621899055.8,286047005.5,Y
1621899075.7,286047004.3,P
1621899095.5,286047002.7,N
1621899115.3,286047000.3,N
1621899135.2,286046998.8,N
1621899155.0,286047000.4,N
1621899155.9,286047000.4,N
1621899175.7,286046998.5,N
1621899195.6,286047002.5,N
1621899215.4,286047002.6,N
1621899235.3,286047001.9,N
1621899255.1,286047003.0,N
1621899256.0,286047003.0,N
1621899275.8,286047004.4,N
1621899295.7,286047002.6,N
1621899315.5,286047002.6,N
1621899335.4,286047000.5,N
1621899355.2,286047002.5,N
1621899375.0,286047001.0,N
1621899375.9,286047001.0,N
1621899395.8,286047004.4,N
1621899415.6,286047001.8,N
1621899435.4,286047002.0,N
1621899455.3,286046999.7,N
1621899475.1,286047000.3,N
1621899495.9,286047002.5,N
1621899515.7,286047001.8,N
1621899535.5,286047004.2,N
1621899555.4,286047005.8,Y
1621899575.2,286047000.0,P
1621899595.0,286047000.0,N
1621899595.9,286047000.0,N
1621899615.8,286047002.3,N
1621899635.6,286047001.7,N
1621899655.5,286047004.0,Y
1621899675.3,286047002.2,P
1621899695.1,286047000.5,N
1621899715.9,286047002.8,P
1621899735.7,286047001.9,N
1621899755.5,286047001.7,N
1621899775.4,286047002.0,N
1621899795.2,286047001.0,N
1621899815.1,286046998.5,N
1621899816.0,286046998.5,N
1621899835.8,286046999.9,N
1621899855.6,286046999.4,N
1621899875.5,286047000.7,N
1621899895.3,286046999.9,N
1621899915.1,286047002.5,N
1621899935.9,286047002.6,N
1621899955.7,286046998.6,N
1621899975.6,286047000.2,N
1621899995.4,286046998.9,N
1621900015.2,286047002.3,N
1621900035.1,286047002.4,N
1621900036.0,286047002.4,N
1621900055.8,286047000.0,N
1621900075.6,286046998.8,N
1621900095.5,286046999.5,N
1621900115.3,286047000.8,N
1621900135.2,286047002.7,N
1621900155.9,286047002.2,N
1621900175.7,286047001.4,N
1621900195.6,286047004.3,Y
1621900215.4,286047002.3,P
1621900235.2,286047002.4,P
1621900255.1,286047002.1,N
1621900256.0,286047002.1,Y
1621900275.8,286047001.0,P
1621900295.7,286047001.0,N
1621900315.5,286047001.2,N
1621900335.3,286047000.1,N
1621900355.2,286046998.6,N
1621900375.0,286046999.3,N
1621900375.9,286046999.3,N
1621900395.8,286046998.9,N
1621900415.6,286047001.1,N
1621900435.4,286047001.2,N
1621900455.3,286046996.5,Y
1621900475.1,286046995.0,P
1621900495.8,286046997.2,N
1621900515.7,286046999.6,N
1621900535.5,286047001.2,N
1621900555.4,286046998.2,N
1621900575.2,286046998.1,N
1621900595.0,286046999.2,N
1621900595.9,286046999.2,N
1621900615.8,286046998.5,N
1621900635.6,286047002.8,N
1621900655.4,286046999.7,N
1621900675.3,286046998.8,N
1621900695.1,286046997.2,N
1621900715.9,286046997.9,N
1621900735.7,286046999.6,N
1621900755.5,286046999.2,N
1621900775.4,286046998.3,N
1621900795.2,286047000.9,N
